STARLINK-3287, 50172

Orbit data source: Space-Track

STARLINK-3287, 50172 is a payload satellite owned by SpaceX/Seattle (US) in LEO that was launched on Sat, 18 Dec 2021 UTC via an FALCON 9 launch vehicle from the Air Force Western Test Range (AFWTR). Payload-class satellites include a variety of spacecraft equipped with specific instruments for various scientific and technological missions. These include communications satellites like Starlink; space stations such as the ISS; scientific satellites like the Hubble; Earth observation satellites from companies like Planet Labs, Umbra, and HawkEye 360; GPS; miniature CubeSats for education and research; and military/defense satellites.

Loading next visibility...
Identifier
50172, 2021-125S
Orbit
LEO
Country
Flag of USUS
Related business
Manufacturer
SpaceX/Seattle
Mission
Operational Commercial Communications
Bus & Motor
STARLINK, Unknown motor
Mass
290 kg wet, ~270 kg dry
Launch date (UTC)
2021-12-18 (5 years ago)
Launch vehicle
FALCON 9
Launch site
Air Force Western Test Range (AFWTR)
Object type
Payload
Rocket body
Debris
Shape & HBR
Box + 1 Pan, 10.1 m
Radar Cross Section
13.562 m², Large (>1 m²)

Expand to show TLE details & history
Last TLE update: 5 hours ago

TLE from 5 hours ago
0 STARLINK-3287
1 50172U 21125S   26170.10892122  .00000593  00000-0  55352-4 0  9998
2 50172  53.1593 153.7255 0001347  81.8975 278.2169 15.08831968251949
Epoch: 2026-06-19T02:36Z
TLE epoch observation values (Epoch: 2026-06-19T02:36:50.793Z)
Latitude
-0.00003°
Longitude
-152.82878°
Altitude
540.526 km
Speed
7.593 km/s
True Right ascension
10h 14m 54s
True Declination
0° 00' 00"
Sunlit
Object was in daylight at epoch
Visualization orbit readout
Latitude
Unknown
Longitude
Unknown
Altitude
Unknown
Speed
Unknown
Apparent Right ascension
Unknown
Apparent Declination
Unknown
Sunlit
N/A
Visualization observer readout
Local Sidereal Time
18:41:48
Azimuth
Unknown
Elevation
Unknown
Doppler factor
Unknown
Orbital elements
Apogee altitude
540.954 km
Perigee altitude
539.09 km
Semi-major axis
6,918.159 km
Eccentricity
0.00013
Inclination
53.1593°
RAAN
153.7255°
Arg. of periapsis
81.8975°
True anomaly
278.20162°
Mean anomaly
278.2169°
Eccentric anomaly
278.20926°
Mean motion
3.77188 °/min
Orbital period
95.44 mins
BSTAR
0.000055352
Loading maneuver chart data...
Computing Atmospheric mass density...

Documentation

Showing up to 5 results
|